TimeCST,TemperatureF,Dew PointF,Humidity,Sea Level PressureIn,VisibilityMPH,Wind Direction,Wind SpeedMPH,Gust SpeedMPH,PrecipitationIn,Events,Conditions,WindDirDegrees,DateUTC
12:15 AM,50.0,50.0,100,29.97,1.8,ESE,4.6,-,N/A,,Overcast,110,2012-12-03 06:15:00
12:35 AM,50.0,50.0,100,29.96,2.0,ESE,5.8,-,N/A,,Mostly Cloudy,120,2012-12-03 06:35:00
12:55 AM,50.0,50.0,100,29.95,2.5,SE,6.9,-,N/A,,Scattered Clouds,140,2012-12-03 06:55:00
1:15 AM,50.0,50.0,100,29.95,3.0,SE,5.8,-,N/A,,Mostly Cloudy,130,2012-12-03 07:15:00
1:35 AM,51.8,51.8,100,29.94,3.0,SE,8.1,-,N/A,,Scattered Clouds,140,2012-12-03 07:35:00
1:55 AM,51.8,51.8,100,29.94,3.0,SSE,8.1,-,N/A,,Mostly Cloudy,160,2012-12-03 07:55:00
2:15 AM,51.8,51.8,100,29.93,4.0,SSE,10.4,-,N/A,,Scattered Clouds,160,2012-12-03 08:15:00
2:35 AM,51.8,51.8,100,29.93,4.0,SSE,10.4,-,N/A,,Scattered Clouds,160,2012-12-03 08:35:00
2:55 AM,53.6,53.6,100,29.92,4.0,South,9.2,-,N/A,,Clear,170,2012-12-03 08:55:00
3:15 AM,53.6,53.6,100,29.91,4.0,South,9.2,-,N/A,,Clear,170,2012-12-03 09:15:00
3:35 AM,53.6,53.6,100,29.90,5.0,South,10.4,-,N/A,,Scattered Clouds,170,2012-12-03 09:35:00
3:55 AM,53.6,53.6,100,29.89,5.0,South,11.5,-,N/A,,Clear,170,2012-12-03 09:55:00
4:15 AM,53.6,53.6,100,29.89,5.0,South,9.2,-,N/A,,Clear,170,2012-12-03 10:15:00
4:35 AM,53.6,53.6,100,29.88,5.0,SSE,11.5,18.4,N/A,,Clear,160,2012-12-03 10:35:00
4:55 AM,53.6,53.6,100,29.88,4.0,SSE,11.5,-,N/A,,Clear,160,2012-12-03 10:55:00
5:15 AM,53.6,53.6,100,29.87,4.0,SSE,10.4,-,N/A,,Clear,160,2012-12-03 11:15:00
5:35 AM,53.6,53.6,100,29.87,5.0,South,11.5,17.3,N/A,,Clear,170,2012-12-03 11:35:00
6:15 AM,55.4,55.4,100,29.86,5.0,South,10.4,-,N/A,,Clear,170,2012-12-03 12:15:00
6:35 AM,55.4,55.4,100,29.86,7.0,South,11.5,-,N/A,,Clear,170,2012-12-03 12:35:00
6:55 AM,55.4,55.4,100,29.85,7.0,South,10.4,-,N/A,,Clear,170,2012-12-03 12:55:00
7:15 AM,55.4,55.4,100,29.85,7.0,South,11.5,-,N/A,,Clear,170,2012-12-03 13:15:00
7:35 AM,55.4,55.4,100,29.86,5.0,South,10.4,-,N/A,,Clear,170,2012-12-03 13:35:00
7:55 AM,55.4,55.4,100,29.86,5.0,South,10.4,-,N/A,,Clear,170,2012-12-03 13:55:00
8:15 AM,57.2,57.2,100,29.85,7.0,South,10.4,-,N/A,,Clear,170,2012-12-03 14:15:00
8:35 AM,59.0,57.2,94,29.85,7.0,South,10.4,-,N/A,,Clear,170,2012-12-03 14:35:00
8:55 AM,60.8,59.0,94,29.84,10.0,South,12.7,19.6,N/A,,Scattered Clouds,170,2012-12-03 14:55:00
9:15 AM,60.8,59.0,94,29.83,10.0,South,13.8,25.3,N/A,,Mostly Cloudy,170,2012-12-03 15:15:00
9:35 AM,62.6,60.8,94,29.82,10.0,South,12.7,23.0,N/A,,Mostly Cloudy,170,2012-12-03 15:35:00
9:55 AM,62.6,60.8,94,29.82,10.0,South,13.8,-,N/A,,Scattered Clouds,180,2012-12-03 15:55:00
10:15 AM,62.6,60.8,94,29.81,10.0,South,13.8,21.9,N/A,,Scattered Clouds,180,2012-12-03 16:15:00
10:35 AM,64.4,59.0,83,29.81,10.0,South,12.7,19.6,N/A,,Scattered Clouds,190,2012-12-03 16:35:00
10:55 AM,64.4,59.0,83,29.79,10.0,South,16.1,24.2,N/A,,Mostly Cloudy,190,2012-12-03 16:55:00
11:15 AM,66.2,59.0,78,29.78,10.0,South,23.0,29.9,N/A,,Overcast,190,2012-12-03 17:15:00
11:35 AM,66.2,60.8,83,29.77,10.0,SSW,20.7,27.6,N/A,,Overcast,200,2012-12-03 17:35:00
11:55 AM,68.0,60.8,78,29.76,10.0,South,16.1,23.0,N/A,,Mostly Cloudy,190,2012-12-03 17:55:00
12:15 PM,68.0,60.8,78,29.76,10.0,SSW,12.7,23.0,N/A,,Mostly Cloudy,210,2012-12-03 18:15:00
12:35 PM,68.0,59.0,73,29.76,10.0,South,13.8,19.6,N/A,,Overcast,190,2012-12-03 18:35:00
12:55 PM,68.0,59.0,73,29.76,10.0,SSW,9.2,12.7,N/A,,Overcast,210,2012-12-03 18:55:00
1:15 PM,68.0,59.0,73,29.75,10.0,SSW,10.4,17.3,N/A,,Overcast,200,2012-12-03 19:15:00
1:35 PM,69.8,59.0,68,29.74,10.0,South,10.4,16.1,N/A,,Mostly Cloudy,190,2012-12-03 19:35:00
1:55 PM,69.8,59.0,68,29.74,10.0,South,9.2,24.2,N/A,,Mostly Cloudy,190,2012-12-03 19:55:00
2:15 PM,69.8,57.2,64,29.75,10.0,SSW,13.8,19.6,N/A,,Overcast,200,2012-12-03 20:15:00
2:35 PM,69.8,57.2,64,29.76,10.0,SSW,8.1,-,N/A,,Overcast,210,2012-12-03 20:35:00
2:55 PM,69.8,57.2,64,29.76,10.0,SSW,8.1,-,N/A,,Overcast,210,2012-12-03 20:55:00
3:15 PM,69.8,57.2,64,29.76,10.0,SW,13.8,21.9,N/A,,Overcast,220,2012-12-03 21:15:00
3:35 PM,69.8,53.6,56,29.76,10.0,SW,16.1,24.2,N/A,,Scattered Clouds,220,2012-12-03 21:35:00
3:55 PM,69.8,53.6,56,29.77,10.0,SW,12.7,20.7,N/A,,Scattered Clouds,220,2012-12-03 21:55:00
4:15 PM,69.8,53.6,56,29.78,10.0,SSW,12.7,17.3,N/A,,Mostly Cloudy,210,2012-12-03 22:15:00
4:35 PM,69.8,53.6,56,29.79,10.0,SW,12.7,-,N/A,,Overcast,220,2012-12-03 22:35:00
4:55 PM,68.0,53.6,60,29.80,10.0,SW,11.5,18.4,N/A,,Overcast,220,2012-12-03 22:55:00
5:15 PM,68.0,53.6,60,29.80,10.0,SW,13.8,20.7,N/A,,Scattered Clouds,220,2012-12-03 23:15:00
5:35 PM,66.2,53.6,64,29.81,10.0,SSW,10.4,-,N/A,,Mostly Cloudy,210,2012-12-03 23:35:00
5:55 PM,66.2,53.6,64,29.82,10.0,SW,9.2,-,N/A,,Overcast,220,2012-12-03 23:55:00
6:15 PM,66.2,53.6,64,29.83,10.0,SW,9.2,-,N/A,,Overcast,220,2012-12-04 00:15:00
6:35 PM,66.2,53.6,64,29.83,10.0,SW,10.4,16.1,N/A,,Mostly Cloudy,220,2012-12-04 00:35:00
6:55 PM,64.4,53.6,68,29.84,10.0,SW,10.4,16.1,N/A,,Scattered Clouds,220,2012-12-04 00:55:00
7:15 PM,64.4,51.8,64,29.87,10.0,WNW,18.4,-,N/A,,Mostly Cloudy,290,2012-12-04 01:15:00
7:35 PM,60.8,51.8,72,29.88,10.0,NW,12.7,-,N/A,,Overcast,310,2012-12-04 01:35:00
7:55 PM,59.0,48.2,67,29.90,10.0,NW,12.7,21.9,N/A,,Overcast,310,2012-12-04 01:55:00
8:15 PM,57.2,46.4,67,29.92,10.0,NW,12.7,-,N/A,,Overcast,310,2012-12-04 02:15:00
8:35 PM,55.4,44.6,67,29.92,10.0,NW,13.8,25.3,N/A,,Overcast,320,2012-12-04 02:35:00
8:55 PM,55.4,44.6,67,29.93,10.0,NNW,12.7,-,N/A,,Overcast,340,2012-12-04 02:55:00
9:15 PM,53.6,42.8,67,29.93,10.0,NNW,15.0,-,N/A,,Overcast,340,2012-12-04 03:15:00
9:35 PM,53.6,42.8,67,29.94,10.0,NNW,11.5,-,N/A,,Light Drizzle,330,2012-12-04 03:35:00
9:55 PM,53.6,42.8,67,29.96,10.0,NNW,15.0,-,N/A,,Overcast,340,2012-12-04 03:55:00
10:15 PM,53.6,42.8,67,29.96,10.0,NNW,10.4,-,N/A,,Overcast,340,2012-12-04 04:15:00
10:35 PM,53.6,42.8,67,29.97,10.0,NW,9.2,-,N/A,,Overcast,320,2012-12-04 04:35:00
10:55 PM,53.6,39.2,58,29.98,10.0,NNW,15.0,-,N/A,,Overcast,340,2012-12-04 04:55:00
11:15 PM,51.8,37.4,58,29.98,10.0,NNW,15.0,-,N/A,,Overcast,340,2012-12-04 05:15:00
11:35 PM,51.8,37.4,58,29.98,10.0,North,15.0,-,N/A,,Overcast,350,2012-12-04 05:35:00
11:55 PM,50.0,37.4,62,30.00,10.0,NNW,8.1,-,N/A,,Scattered Clouds,340,2012-12-04 05:55:00